Location: Waco, TX
(31.5480°N, 97.1670°W)
Time: 08:10:21
(UTC-06:00)

ISS - Pass Details

Date: 11 November 2017
Orbit: 402 x 407 km, 51.6° (Epoch: 21 November)

Event Time Altitude Azimuth Distance (km) Brightness Sun altitude
Rises 09:04:31 0° 307° (NW) 2,311 -0.6 23.3°
Reaches altitude 10° 09:06:40 10° 299° (WNW) 1,450 -1.5 23.6°
Maximum altitude 09:09:43 38° 229° (SW) 621 -2.7 24.1°
Drops below altitude 10° 09:12:46 10° 159° (SSE) 1,444 0.2 24.6°
Sets 09:14:54 0° 151° (SSE) 2,300 1.2 24.9°
